Regional Weather Roundup
Issued by NWS

Home | Current Version | Previous Version | Text Only | Print | Product List | Glossary On
Versions: 1 2 3 4 5 6 7 8 9 10 11 12 13 14 15 16 17 18 19 20 21 22 23 24 25 26 27 28 29 30 31 32 33 34 35 36 37 38 39 40 41 42 43 44 45 46 47 48 49 50
000
ASCA44 KEWX 300620
RWRMX

LATIN AMERICA AND CARIBBEAN REGIONAL WEATHER ROUNDUP
NATIONAL WEATHER SERVICE AUSTIN/SAN ANTONIO TX
100 AM CDT SAT MAY 30 2015

NOTE: "FAIR" INDICATED FEW OR NO CLOUDS BELOW 12,000 FEET WITH NO
SIGNIFICANT WEATHER AND/OR OBSTRUCTIONS TO VISIBILITY.

BAJA CALIFORNIA

CITY           SKY/WX    TMP DP  RH WIND       PRES   REMARKS
LA PAZ           N/A    N/A N/A N/A MISG        N/A
S.J. DEL CABO  CLEAR     84  57  39 CALM      29.87R
TIJUANA        CLEAR     59  54  82 W5        29.96R

NORTHWESTERN MEXICO

CITY           SKY/WX    TMP DP  RH WIND       PRES   REMARKS
CULIACAN         N/A    N/A N/A N/A MISG        N/A
HERMOSILLO     CLEAR     81  46  30 S3        29.90R

NORTHEASTERN MEXICO

CITY           SKY/WX    TMP DP  RH WIND       PRES   REMARKS
CHIHUAHUA      MOCLDY    82  34  17 N8        30.05S
MATAMOROS      CLEAR     77  77 100 SE3       29.98S
MONTERREY      CLEAR     73  72  94 E6        29.96R

WESTERN MEXICO

CITY           SKY/WX    TMP DP  RH WIND       PRES   REMARKS
AGUASCALIENTES   N/A    N/A N/A N/A MISG        N/A
DEL BAJIO      CLOUDY    61  57  88 W5        30.35R
GUADALAJARA    MOCLDY    63  55  77 SE3       30.22F
MAZATLAN       MOCLDY    73  64  73 SE7       29.89S
P. VALLARTA    CLOUDY    77  64  65 NE5       29.91R
ZACATECAS      MOCLDY    57  46  67 SE8       30.35R

CENTRAL MEXICO

CITY           SKY/WX    TMP DP  RH WIND       PRES   REMARKS
MEXICO CITY    CLOUDY    59  54  82 W9        30.34S
QUERETARO        N/A    N/A N/A N/A MISG        N/A
S. LUIS POTOSI MOCLDY    63  55  77 SE8       30.28R
TAMPICO          N/A    N/A N/A N/A MISG        N/A
TOLUCA         CLOUDY    54  48  82 W5        30.41R

SOUTHERN MEXICO

CITY           SKY/WX    TMP DP  RH WIND       PRES   REMARKS
ACAPULCO       CLOUDY    81  75  83 NE2       29.90R
VERACRUZ         N/A    N/A N/A N/A MISG        N/A

YUCATAN PENINSULA

CITY           SKY/WX    TMP DP  RH WIND       PRES   REMARKS
CANCUN         CLEAR     79  73  83 NE6       29.98F
COZUMEL        PTCLDY    72  72 100 CALM      29.97F
MERIDA         PTCLDY    81  72  74 E10       29.96S
TAPACHULA      MOCLDY    77  75  94 CALM      29.91F

CENTRAL AMERICA

CITY           SKY/WX    TMP DP  RH WIND       PRES   REMARKS
MANAGUA        PTCLDY    79  70  73 SE7       29.86

CARIBBEAN

CITY           SKY/WX    TMP DP  RH WIND       PRES   REMARKS
ARUBA          PTCLDY    81  77  89 E16       29.86
KINGSTON       PTCLDY    79  73  83 N6        29.92F
NASSAU         PTCLDY    75  72  88 CALM      30.05F
SAN JUAN       PTCLDY    77  73  88 CALM      29.97F
SANTO DOMINGO  TSTM      77  73  88 VRB3      29.94S
ST. CROIX      HVY RAIN  73  73 100 E9        29.99  FOG
ST. MAARTEN    LGT RAIN  81  75  83 E6        29.97S
ST. THOMAS     MOCLDY    79  75  89 E6        29.97

$$



USA.gov is the U.S. government's official web portal to all federal, state and local government web resources and services.